Regional Weather Roundup
Issued by NWS

Home | Current Version | Previous Version | Text Only | Print | Product List | Glossary On
Versions: 1 2 3 4 5 6 7 8 9 10 11 12 13 14 15 16 17 18 19 20 21 22 23 24 25 26 27 28 29 30 31 32 33 34 35 36 37 38 39 40 41 42 43 44 45 46 47 48 49 50
000
ASUS46 KPQR 201010
RWROR

OREGON REGIONAL WEATHER ROUNDUP
NATIONAL WEATHER SERVICE PORTLAND OR
200 AM PST MON FEB 20 2017

NOTE: "FAIR" INDICATES FEW OR NO CLOUDS BELOW 12,000 FEET WITH
NO SIGNIFICANT WEATHER AND/OR OBSTRUCTIONS TO VISIBILITY.

ORZ001>013-201100-
NORTHWEST OREGON


CITY           SKY/WX    TMP DP  RH WIND       PRES   REMARKS
ASTORIA        LGT RAIN  42  40  92 E6        29.54F
NEWPORT        LGT RAIN  43  43 100 E7        29.54F
PORTLAND       LGT RAIN  42  40  92 E9        29.59F
VANCOUVER WA   LGT RAIN  42  42 100 SE7       29.59F
SCAPPOOSE      LGT RAIN  43  42  97 CALM      29.58F
HILLSBORO      LGT RAIN  44  42  93 E6        29.57F
AURORA         LGT RAIN  45  41  86 CALM      29.58F
MCMINNVILLE    LGT RAIN  45  42  89 SE7       29.57F
SALEM          LGT RAIN  44  41  89 S12       29.56F
CORVALLIS        N/A     45  41  87 E8        29.55F
EUGENE         LGT RAIN  44  44 100 CALM      29.54F
$$

ORZ021-028-201100-
SOUTHWEST OREGON


CITY           SKY/WX    TMP DP  RH WIND       PRES   REMARKS
NORTH BEND     CLOUDY    46  45  93 CALM      29.49F
BROOKINGS      CLOUDY    50  47  89 S12       29.50R
ROSEBURG       LGT RAIN  45  44  97 CALM      29.52F
SEXTON SUMMIT  LGT SNOW  35  34  96 SE12G17   29.43F FOG     WCI  27
MEDFORD        LGT RAIN  42  41  96 NE5       29.51F
$$

ORZ014>016-041-201100-
COLUMBIA GORGE


CITY           SKY/WX    TMP DP  RH WIND       PRES   REMARKS
TROUTDALE      LGT RAIN  43  40  89 E17       29.59F
THE DALLES     LGT RAIN  37  36  96 NE3       29.65F FOG
$$

ORZ029>031-041-044-049-050-061>064-502-503-505>511-201100-
EASTERN OREGON


CITY           SKY/WX    TMP DP  RH WIND       PRES   REMARKS
REDMOND        MOCLDY    37  33  85 E5        29.53F WCI  33
BEND           MOCLDY    36  34  93 CALM      29.53F
PRINEVILLE     CLOUDY    37  36  93 CALM      29.56F
KLAMATH FALLS  CLOUDY    40  32  73 S12       29.61R WCI  33
LAKEVIEW       PTCLDY    39  30  70 S18G26    29.67F WCI  30
HERMISTON      LGT RAIN  37  37 100 SE8       29.65F FOG     WCI  31
PENDLETON      LGT RAIN  42  39  89 E7        29.65F
JOHN DAY       LGT RAIN  42  35  76 S15G25    29.65F
MEACHAM        CLOUDY    35  30  82 CALM      29.62F
LA GRANDE      CLOUDY    41  34  75 S20G32    29.66S
BAKER CITY     LGT RAIN  38  35  89 SE10      29.70S WCI  31
BURNS          CLOUDY    35  29  78 NE5       29.69F WCI  31
ROME             N/A     39  31  72 SE8       29.71S WCI  33
ONTARIO        CLOUDY    36  34  92 CALM      29.78S
$$



USA.gov is the U.S. government's official web portal to all federal, state and local government web resources and services.